• en France
  • Liste des pays
  • À 7 jours
  • Température de l'eau
  • Carte satellitaire
  • Carte météo
  • Widgets météo
  • user-avatar
    Se connecter

    Météo par heure à Dzerzhinskoe

    Ce jour, 15 Octobre, Lundi

    Heure Température Précipitation Vent Pression Humidité
    00:00 +14°C° 0 mm 2 m/s 767 mmHg 44%
    01:00 +14°C° 0 mm 2 m/s 767 mmHg 45%
    02:00 +13°C° 0 mm 3 m/s 767 mmHg 46%
    03:00 +13°C° 0 mm 3 m/s 766 mmHg 46%
    04:00 +12°C° 0 mm 3 m/s 767 mmHg 48%
    05:00 +13°C° 0 mm 2 m/s 767 mmHg 50%
    06:00 +12°C° 0 mm 2 m/s 767 mmHg 52%
    07:00 +14°C° 0 mm 2 m/s 767 mmHg 50%
    08:00 +16°C° 0 mm 2 m/s 767 mmHg 47%
    09:00 +18°C° 0 mm 2 m/s 767 mmHg 46%
    10:00 +18°C° 0 mm 2 m/s 767 mmHg 45%
    11:00 +19°C° 0 mm 2 m/s 768 mmHg 44%
    12:00 +19°C° 0 mm 3 m/s 768 mmHg 44%
    13:00 +19°C° 0 mm 3 m/s 768 mmHg 46%
    14:00 +19°C° 0 mm 3 m/s 768 mmHg 48%
    15:00 +18°C° 0 mm 2 m/s 768 mmHg 52%
    16:00 +17°C° 0 mm 2 m/s 768 mmHg 54%
    17:00 +16°C° 0 mm 2 m/s 768 mmHg 56%
    18:00 +16°C° 0 mm 2 m/s 768 mmHg 59%
    19:00 +15°C° 0 mm 2 m/s 768 mmHg 59%
    20:00 +15°C° 0 mm 2 m/s 768 mmHg 59%
    21:00 +15°C° 0 mm 2 m/s 768 mmHg 59%
    22:00 +15°C° 0 mm 1 m/s 768 mmHg 59%
    23:00 +15°C° 0 mm 1 m/s 768 mmHg 59%

    Demain, 16 Octobre, Mardi

    Heure Température Précipitation Vent Pression Humidité
    00:00 +15°C° 0 mm 1 m/s 768 mmHg 58%
    01:00 +15°C° 0 mm 1 m/s 768 mmHg 58%
    02:00 +15°C° 0 mm 1 m/s 768 mmHg 59%
    03:00 +15°C° 0 mm 1 m/s 768 mmHg 59%
    04:00 +15°C° 0 mm 1 m/s 768 mmHg 60%
    05:00 +15°C° 0 mm 1 m/s 768 mmHg 61%
    06:00 +14°C° 0 mm 1 m/s 768 mmHg 62%
    07:00 +16°C° 0 mm 2 m/s 768 mmHg 58%
    08:00 +18°C° 0 mm 2 m/s 769 mmHg 54%
    09:00 +19°C° 0 mm 2 m/s 769 mmHg 50%
    10:00 +21°C° 0 mm 2 m/s 769 mmHg 48%
    11:00 +22°C° 0 mm 3 m/s 768 mmHg 46%
    12:00 +24°C° 0 mm 3 m/s 768 mmHg 45%
    13:00 +24°C° 0 mm 3 m/s 768 mmHg 45%
    14:00 +23°C° 0 mm 4 m/s 768 mmHg 46%
    15:00 +23°C° 0 mm 4 m/s 768 mmHg 47%
    16:00 +21°C° 0 mm 4 m/s 768 mmHg 55%
    17:00 +19°C° 0 mm 4 m/s 768 mmHg 62%
    18:00 +18°C° 0 mm 4 m/s 768 mmHg 70%
    19:00 +17°C° 0 mm 4 m/s 768 mmHg 73%
    20:00 +17°C° 0 mm 4 m/s 768 mmHg 76%
    21:00 +16°C° 0 mm 3 m/s 769 mmHg 79%
    22:00 +16°C° 0 mm 3 m/s 768 mmHg 80%
    23:00 +15°C° 0 mm 4 m/s 768 mmHg 82%

    Après-demain, 17 Octobre, Mercredi

    Heure Température Précipitation Vent Pression Humidité
    00:00 +15°C° 0 mm 4 m/s 768 mmHg 83%
    01:00 +14°C° 0 mm 4 m/s 768 mmHg 84%
    02:00 +14°C° 0 mm 4 m/s 768 mmHg 85%
    03:00 +14°C° 0 mm 4 m/s 768 mmHg 85%
    04:00 +14°C° 0 mm 4 m/s 768 mmHg 86%
    05:00 +14°C° 0 mm 4 m/s 768 mmHg 86%
    06:00 +14°C° 0 mm 4 m/s 768 mmHg 87%
    07:00 +17°C° 0 mm 4 m/s 768 mmHg 79%
    08:00 +17°C° 0 mm 5 m/s 767 mmHg 70%
    09:00 +20°C° 0 mm 5 m/s 767 mmHg 62%
    10:00 +21°C° 0 mm 6 m/s 767 mmHg 58%
    11:00 +22°C° 0 mm 6 m/s 767 mmHg 55%
    12:00 +24°C° 0 mm 6 m/s 767 mmHg 51%
    13:00 +23°C° 0 mm 6 m/s 766 mmHg 53%
    14:00 +23°C° 0 mm 6 m/s 766 mmHg 54%
    15:00 +23°C° 0 mm 6 m/s 765 mmHg 56%
    16:00 +21°C° 0 mm 6 m/s 766 mmHg 64%
    17:00 +20°C° 0 mm 5 m/s 766 mmHg 72%
    18:00 +18°C° 0 mm 4 m/s 766 mmHg 81%
    19:00 +18°C° 0 mm 4 m/s 766 mmHg 84%
    20:00 +17°C° 0 mm 4 m/s 766 mmHg 87%
    21:00 +17°C° 0 mm 3 m/s 766 mmHg 90%
    22:00 +16°C° 0 mm 3 m/s 766 mmHg 90%
    23:00 +16°C° 0 mm 3 m/s 765 mmHg 91%

    18 Octobre, Jeudi

    Heure Température Précipitation Vent Pression Humidité
    00:00 +16°C° 0 mm 3 m/s 765 mmHg 91%
    01:00 +16°C° 0 mm 2 m/s 765 mmHg 91%
    02:00 +16°C° 0 mm 2 m/s 765 mmHg 91%
    03:00 +15°C° 0 mm 2 m/s 765 mmHg 91%
    04:00 +15°C° 0 mm 2 m/s 765 mmHg 91%
    05:00 +15°C° 0 mm 2 m/s 765 mmHg 91%
    06:00 +15°C° 0 mm 2 m/s 765 mmHg 90%
    07:00 +17°C° 0 mm 2 m/s 765 mmHg 84%
    08:00 +18°C° 0 mm 2 m/s 765 mmHg 78%
    09:00 +20°C° 0 mm 2 m/s 766 mmHg 71%
    10:00 +21°C° 0 mm 3 m/s 765 mmHg 66%
    11:00 +22°C° 0 mm 3 m/s 765 mmHg 60%
    12:00 +24°C° 0 mm 3 m/s 765 mmHg 55%
    13:00 +23°C° 0 mm 4 m/s 765 mmHg 55%
    14:00 +23°C° 0 mm 4 m/s 765 mmHg 55%
    15:00 +23°C° 0 mm 5 m/s 764 mmHg 55%
    16:00 +22°C° 0 mm 4 m/s 765 mmHg 63%
    17:00 +20°C° 0 mm 4 m/s 765 mmHg 71%
    18:00 +18°C° 0 mm 3 m/s 765 mmHg 79%
    19:00 +18°C° 0 mm 3 m/s 765 mmHg 83%
    20:00 +17°C° 0 mm 3 m/s 765 mmHg 87%
    21:00 +17°C° 0 mm 3 m/s 765 mmHg 91%
    22:00 +16°C° 0 mm 3 m/s 765 mmHg 91%
    23:00 +16°C° 0 mm 3 m/s 765 mmHg 92%

    19 Octobre, Vendredi

    Heure Température Précipitation Vent Pression Humidité
    00:00 +16°C° 0 mm 3 m/s 765 mmHg 92%
    01:00 +16°C° 0 mm 3 m/s 765 mmHg 91%
    02:00 +16°C° 0 mm 3 m/s 765 mmHg 91%
    03:00 +16°C° 0 mm 3 m/s 765 mmHg 91%
    04:00 +16°C° 0 mm 3 m/s 765 mmHg 90%
    05:00 +14°C° 0 mm 3 m/s 765 mmHg 90%
    06:00 +14°C° 0 mm 3 m/s 765 mmHg 89%
    07:00 +17°C° 0 mm 3 m/s 765 mmHg 82%
    08:00 +19°C° 0 mm 4 m/s 765 mmHg 74%
    09:00 +20°C° 0 mm 4 m/s 765 mmHg 67%
    10:00 +22°C° 0 mm 5 m/s 765 mmHg 62%
    11:00 +23°C° 0 mm 5 m/s 764 mmHg 56%
    12:00 +24°C° 0 mm 6 m/s 764 mmHg 51%
    13:00 +24°C° 0 mm 6 m/s 764 mmHg 53%
    14:00 +24°C° 0 mm 6 m/s 764 mmHg 54%
    15:00 +23°C° 0 mm 6 m/s 763 mmHg 56%
    16:00 +22°C° 0 mm 6 m/s 764 mmHg 64%
    17:00 +20°C° 0 mm 5 m/s 764 mmHg 71%
    18:00 +19°C° 0 mm 5 m/s 764 mmHg 79%
    19:00 +17°C° 0 mm 5 m/s 764 mmHg 80%
    20:00 +17°C° 0 mm 5 m/s 764 mmHg 82%
    21:00 +16°C° 0 mm 5 m/s 764 mmHg 83%
    22:00 +16°C° 0 mm 5 m/s 764 mmHg 83%
    23:00 +17°C° 0 mm 4 m/s 763 mmHg 83%

    20 Octobre, Samedi

    Heure Température Précipitation Vent Pression Humidité
    00:00 +17°C° 0 mm 4 m/s 763 mmHg 82%
    01:00 +17°C° 0 mm 4 m/s 763 mmHg 82%
    02:00 +15°C° 0 mm 4 m/s 763 mmHg 82%
    03:00 +16°C° 0 mm 3 m/s 762 mmHg 81%
    04:00 +16°C° 0 mm 3 m/s 762 mmHg 81%
    05:00 +16°C° 0 mm 3 m/s 762 mmHg 81%
    06:00 +16°C° 0 mm 3 m/s 762 mmHg 80%
    07:00 +17°C° 0 mm 3 m/s 762 mmHg 73%
    08:00 +19°C° 0 mm 3 m/s 762 mmHg 65%
    09:00 +21°C° 0 mm 3 m/s 762 mmHg 57%
    10:00 +22°C° 0 mm 3 m/s 762 mmHg 53%
    11:00 +25°C° 0 mm 3 m/s 761 mmHg 48%
    12:00 +26°C° 0 mm 3 m/s 761 mmHg 43%
    13:00 +26°C° 0 mm 3 m/s 761 mmHg 44%
    14:00 +26°C° 0 mm 3 m/s 761 mmHg 45%
    15:00 +26°C° 0 mm 4 m/s 760 mmHg 46%
    16:00 +24°C° 0 mm 3 m/s 761 mmHg 54%
    17:00 +22°C° 0 mm 3 m/s 761 mmHg 62%
    18:00 +20°C° 0 mm 3 m/s 761 mmHg 70%
    19:00 +19°C° 0 mm 3 m/s 761 mmHg 73%
    20:00 +19°C° 0 mm 2 m/s 761 mmHg 76%
    21:00 +18°C° 0 mm 2 m/s 761 mmHg 79%
    22:00 +18°C° 0 mm 2 m/s 761 mmHg 79%
    23:00 +18°C° 0 mm 1 m/s 760 mmHg 80%
    Voir plus